Back to catalog

STARLINK-31792

AliveCommunicationsVLEO
NORAD 60132·PAYLOAD·🇺🇸 United States

Launched Jun 24, 2024 from Vandenberg Space Force Base

Loading…

Next Passes (next 24 hours)

TLE

FreshSource: CelesTrak SupGP

Epoch: Sep 14, 2026, 14:32 UTC

1 60132C 24118V   26257.60604167 -.00020174  00000+0 -59629-3 0  2576
2 60132  53.1572 225.3062 0001287  86.1606 317.9005 15.34386967    10

Track STARLINK-31792 in real time with AllMySat

Download on the App Store